GEFSSE_500_meanwind_186.txt.gz
Wind_Speed
9 9 9 10 10 11 12 13 13 12 11 11 11 11 10 9 8 8 7 7 7 7 7 7 7 7 7 7 7 7 7 7 7 7 7 7 7 7 7 7 7 8 8
8 8 8 9 9 10 11 11 12 11 10 11 10 10 10 9 8 8 7 7 6 6 6 6 6 6 6 6 6 7 7 7 8 8 8 8 8 8 7 7 7 8 8
7 7 7 7 8 9 10 10 11 11 11 10 10 10 9 9 8 7 6 6 6 5 6 6 6 6 6 6 6 7 7 7 8 8 8 8 8 8 8 8 8 8 8
6 7 7 7 8 8 9 10 10 10 10 10 9 9 8 8 7 7 6 6 6 5 6 6 5 5 6 6 6 7 8 8 8 9 9 8 8 7 7 7 8 8 8
6 6 7 8 8 8 9 10 10 10 9 9 8 8 8 7 7 7 7 7 7 6 6 5 5 5 5 6 7 7 7 8 8 9 9 8 7 7 7 7 7 8 8
5 6 7 8 8 8 9 9 9 9 9 9 8 7 7 7 6 6 6 6 7 7 6 6 6 6 6 6 7 7 7 7 8 8 8 8 7 7 7 7 7 7 7
5 6 7 8 8 8 9 9 9 9 8 7 7 7 7 6 6 6 6 7 7 6 6 6 6 6 6 6 7 6 6 7 7 7 7 8 7 7 6 6 7 7 7
5 6 7 7 7 8 8 8 8 8 8 7 7 6 6 6 5 6 6 6 6 6 6 6 6 6 5 6 6 6 6 6 7 7 7 7 7 7 6 7 7 6 6
6 6 6 7 7 7 7 7 7 7 7 7 6 6 6 5 5 5 6 6 5 5 6 6 6 6 5 5 5 6 6 6 6 6 6 6 6 6 6 6 6 6 6
6 6 6 6 6 6 6 6 7 6 6 6 6 6 5 5 5 5 5 5 5 5 5 5 5 6 5 5 5 5 5 5 6 5 5 5 5 5 6 6 5 5 5
5 5 5 5 5 6 5 5 5 6 6 5 5 5 5 5 5 4 4 4 4 4 4 4 5 5 5 5 5 5 5 5 5 5 5 5 4 5 5 5 4 4 4
5 4 4 4 4 4 4 4 5 5 5 5 5 5 4 4 4 3 3 3 3 3 3 3 4 5 5 4 4 4 4 4 4 4 4 4 4 4 4 4 4 4 4
5 4 4 4 4 4 4 3 4 4 4 4 4 3 3 4 4 3 3 3 2 3 2 2 3 3 4 3 3 3 3 2 2 3 3 3 3 3 3 3 3 3 3
5 4 3 2 3 3 3 3 3 3 3 3 2 3 2 3 3 3 2 2 2 2 2 2 2 2 2 2 2 2 2 2 2 2 2 2 2 2 3 2 2 2 2
5 4 2 1 1 2 2 3 2 2 2 2 2 1 1 2 2 2 2 1 1 1 1 1 1 1 1 1 1 1 2 2 2 2 2 1 2 2 2 2 2 2 2
5 4 2 1 1 1 2 2 2 2 2 2 2 1 2 2 2 1 1 1 1 1 1 1 1 1 1 0 0 0 1 1 2 2 2 1 0 1 1 1 1 1 2
5 4 2 1 1 2 2 2 3 3 2 2 2 2 2 2 2 2 2 2 2 2 1 1 1 2 1 1 1 1 1 1 1 2 1 1 0 0 0 0 1 1 2
5 4 3 3 2 2 3 4 3 3 3 3 2 2 2 2 2 3 3 3 4 3 3 2 2 3 3 3 2 2 2 1 1 2 1 1 1 1 1 1 1 2 2
6 6 5 4 3 3 3 4 5 4 4 4 4 3 4 3 3 3 3 4 4 4 4 3 3 3 4 3 3 3 3 3 2 2 2 2 2 2 2 2 2 3 3
8 7 5 5 4 4 4 5 6 6 6 6 5 5 5 5 4 4 4 5 5 5 5 5 5 5 5 5 5 5 4 4 4 4 4 3 3 3 3 4 4 4 4
9 8 6 6 5 4 5 6 7 7 8 8 7 7 6 6 6 6 5 6 7 7 6 6 6 6 6 6 6 6 6 6 6 6 5 5 4 4 5 5 5 6 6
10 9 8 6 6 5 6 7 8 8 8 9 9 9 8 7 7 8 7 7 8 8 8 7 7 7 7 8 8 8 8 7 7 7 7 6 6 6 6 6 6 7 7
10 9 8 7 6 6 7 7 8 9 9 9 9 9 9 9 9 8 8 7 8 9 9 9 9 8 8 9 10 10 9 9 9 9 9 8 8 8 8 8 8 8 8
10 10 10 8 8 7 7 7 8 9 9 9 9 10 10 10 9 9 10 9 9 10 10 10 10 10 10 11 11 11 11 11 10 11 11 11 10 10 10 9 9 9 9
10 11 12 11 10 10 8 8 8 9 9 9 9 10 10 10 10 11 11 11 10 11 12 12 12 12 11 12 13 12 12 12 12 12 12 12 12 13 12 12 12 11 12
12 12 13 11 10 10 9 8 8 8 9 9 10 11 11 11 12 12 12 12 12 12 13 13 13 13 13 13 14 14 14 14 14 14 13 14 14 14 14 14 14 14 14

GEFSSE_500_meanwind_192.txt.gz
Wind_Speed
12 12 12 12 13 13 14 14 13 13 14 14 14 14 13 12 12 12 12 11 11 10 10 9 8 8 7 7 8 8 7 7 7 7 6 6 6 6 6 6 6 6 5
12 11 11 11 12 12 11 12 12 13 13 13 13 12 12 12 11 11 11 11 10 10 9 8 8 8 7 7 8 7 7 7 7 7 6 6 6 6 6 6 6 5 5
11 10 10 10 10 10 11 11 11 12 12 12 12 12 11 11 11 11 11 10 10 9 9 8 8 7 7 7 7 8 7 8 7 7 7 6 6 6 6 6 6 6 6
10 9 9 9 9 9 10 10 11 11 11 11 11 11 11 11 10 10 10 10 9 9 8 7 7 7 7 7 7 7 8 8 7 7 7 6 6 6 6 6 6 6 6
9 9 9 9 9 9 10 10 10 10 10 10 10 10 10 10 9 9 9 9 8 7 7 6 6 6 7 7 7 7 8 8 7 7 7 6 6 6 6 6 6 6 6
8 8 8 8 9 9 9 9 9 9 9 9 9 10 10 9 9 8 7 7 7 7 6 6 6 6 7 7 7 8 8 7 7 7 6 6 6 6 6 5 6 6 6
7 8 8 8 8 9 9 9 9 9 9 9 9 9 9 9 9 8 7 8 7 7 6 6 6 6 6 7 7 7 7 7 7 7 7 6 6 6 5 5 6 6 5
7 6 7 7 8 8 8 8 8 8 9 8 8 8 8 9 9 9 8 8 7 7 6 6 6 6 7 7 7 7 7 7 6 6 6 6 6 5 5 5 5 5 5
7 6 5 6 7 7 7 7 7 7 8 8 7 7 7 7 7 8 8 7 7 6 6 6 6 6 6 7 7 6 6 6 6 5 5 5 5 5 5 5 5 5 5
6 5 5 5 6 6 6 6 7 6 7 7 6 6 7 6 6 6 7 6 6 6 6 5 6 6 6 5 5 6 5 5 5 5 4 4 4 4 4 4 4 4 5
5 4 4 4 5 5 5 5 6 6 6 6 6 6 6 6 5 5 5 6 6 6 6 5 5 5 5 4 4 5 4 4 4 4 4 4 4 4 4 5 5 4 4
5 4 3 3 4 4 4 4 5 5 5 6 6 6 6 6 5 4 4 4 5 5 5 5 4 4 4 4 4 4 4 3 4 3 3 3 3 3 4 4 4 4 3
5 4 3 3 3 3 3 3 4 4 5 5 5 5 5 5 5 4 4 4 4 4 4 4 4 4 3 3 3 3 3 3 3 2 2 2 2 2 3 3 3 3 3
4 3 3 3 2 2 2 2 3 3 4 4 4 3 3 3 3 3 3 3 3 3 3 4 3 3 3 3 3 3 2 2 2 1 1 2 2 2 2 2 2 2 2
4 3 2 2 1 1 1 1 1 1 2 2 3 3 2 2 2 3 3 2 2 2 3 3 3 2 2 2 1 1 1 1 1 1 1 1 1 1 1 1 1 1 1
4 3 2 1 0 1 1 2 2 2 1 2 2 2 2 2 2 3 3 3 3 2 2 2 2 2 2 1 1 1 1 0 0 0 0 1 1 0 0 1 1 0 0
4 3 2 2 2 2 2 3 3 2 2 2 2 2 3 3 3 3 3 3 3 3 3 2 3 3 2 2 2 2 2 1 1 1 1 1 1 1 1 1 2 2 2
4 4 4 4 4 3 3 3 4 4 4 3 3 3 3 3 3 3 4 4 4 4 4 3 4 4 4 3 3 3 3 2 2 2 2 2 2 2 2 2 3 3 3
5 5 5 5 5 4 4 4 5 6 5 5 4 4 4 4 5 5 5 6 5 5 5 5 5 5 4 4 4 4 3 3 3 3 3 3 3 3 3 3 4 4 4
6 5 6 6 6 5 5 5 6 7 7 7 6 6 5 5 6 6 6 6 6 6 7 6 6 6 6 6 6 5 4 4 4 4 5 5 5 4 4 5 5 5 5
6 6 6 6 6 6 5 5 6 7 7 7 7 7 6 6 6 7 7 7 7 7 7 7 7 7 7 6 6 6 6 6 6 6 6 6 6 6 6 6 6 7 7
7 7 6 6 5 6 5 5 6 7 8 8 8 8 8 8 7 8 8 8 7 7 7 8 8 9 8 7 7 7 7 7 7 8 8 8 8 8 8 8 8 8 8
8 8 8 6 5 6 6 6 7 7 8 9 9 9 10 9 9 9 9 9 9 8 9 9 9 9 9 9 9 9 9 9 9 9 9 9 9 10 10 10 10 10 10
10 10 8 6 6 6 7 8 8 8 8 9 10 10 10 10 10 10 10 10 11 10 10 10 10 11 11 11 11 11 10 10 10 10 11 11 11 11 11 12 12 12 12
11 10 9 7 7 8 9 10 9 9 9 9 10 11 11 11 11 11 12 11 11 11 11 11 12 12 12 12 12 12 12 12 12 12 12 12 12 12 13 13 13 13 13
11 11 10 9 9 10 10 10 10 10 10 11 11 11 11 11 12 12 13 13 13 12 12 12 12 12 12 13 14 14 14 14 14 14 13 14 14 14 14 14 14 15 15

GEFSSE_500_meanwind_198.txt.gz
Wind_Speed
12 12 11 11 11 11 12 11 10 10 10 10 10 10 10 10 10 10 10 9 9 9 9 9 8 9 9 9 9 9 9 8 9 9 8 8 8 8 7 7 7 6 6
11 11 11 11 10 10 9 9 9 9 9 9 9 10 9 9 9 10 9 9 8 9 8 9 8 8 9 9 9 8 8 8 9 9 8 8 8 8 8 8 7 7 7
10 10 10 10 9 8 8 7 8 8 8 9 9 9 8 8 9 9 8 8 8 8 8 8 8 8 8 9 8 8 8 8 8 8 8 8 7 7 8 7 7 7 7
10 9 9 9 8 7 6 6 6 6 7 8 8 7 7 8 8 8 8 8 9 8 8 8 8 8 9 8 8 8 8 8 8 8 8 7 7 7 7 7 7 7 7
9 8 8 7 7 6 6 6 6 7 6 6 6 7 7 7 7 8 8 8 8 7 7 7 8 8 8 8 8 8 8 8 8 7 7 7 7 7 7 7 7 7 7
7 7 7 7 7 6 6 5 5 6 5 5 6 6 6 7 7 7 8 7 7 6 6 7 7 7 7 7 7 7 8 8 8 8 7 7 7 7 7 7 7 7 7
7 6 6 6 6 5 5 5 4 4 4 5 5 6 6 6 6 6 6 6 6 6 6 6 6 5 5 6 6 7 7 8 8 7 7 7 7 7 7 7 7 7 7
7 6 5 5 5 4 4 4 4 3 3 4 4 5 5 5 5 5 5 5 5 5 6 5 5 5 5 5 5 6 6 7 7 7 7 7 6 6 6 6 6 6 6
7 6 6 5 5 5 4 4 3 3 3 3 3 4 4 4 5 5 5 5 5 5 5 5 5 5 6 5 5 5 5 5 6 6 6 6 6 6 6 6 5 5 5
8 7 6 6 5 5 4 4 3 3 3 3 3 3 4 4 4 5 5 5 5 4 5 5 5 5 5 5 5 5 5 5 5 6 6 6 6 6 6 5 5 5 5
8 7 6 5 5 5 4 4 3 3 3 2 3 3 3 3 3 3 3 4 4 4 4 4 5 5 5 5 4 4 4 4 5 5 6 6 6 5 5 5 5 5 5
8 7 6 6 6 5 5 4 4 3 3 3 3 3 3 4 3 2 3 3 4 4 4 3 4 4 4 4 4 4 4 4 4 5 5 5 5 5 5 4 4 4 4
8 7 7 6 6 6 6 5 4 3 3 3 3 3 3 3 3 3 3 2 2 3 3 3 3 4 3 3 3 3 3 3 3 3 4 4 5 4 4 4 4 4 3
7 7 7 6 6 6 6 5 5 4 3 3 3 3 3 3 3 3 3 3 2 2 2 3 2 3 3 2 2 2 2 2 3 3 3 3 3 4 3 3 3 4 3
8 8 7 6 6 6 6 5 4 4 3 2 2 3 3 3 3 3 3 3 3 3 2 1 1 1 1 2 2 2 2 2 2 2 3 3 2 2 3 3 2 2 3
9 8 7 7 6 6 6 5 4 4 3 2 2 2 3 3 3 3 3 3 3 3 3 2 1 1 1 2 2 2 2 2 2 2 2 2 2 2 2 2 2 2 2
9 8 8 7 7 7 7 6 5 4 3 3 3 3 3 3 3 3 4 3 3 3 3 3 2 2 2 2 2 3 3 2 2 2 2 2 2 2 2 2 2 2 2
9 9 8 8 7 7 7 7 6 5 4 3 4 3 4 4 4 4 4 5 5 5 5 4 4 3 3 3 3 4 3 3 3 3 2 2 3 3 3 3 3 3 3
9 9 9 9 8 8 8 8 7 6 5 4 4 4 5 5 5 5 6 6 6 6 6 5 6 5 4 4 5 5 4 4 4 4 3 3 3 3 4 3 4 4 4
10 10 9 9 9 8 8 8 7 6 6 5 5 5 6 6 6 6 6 6 6 6 6 6 7 6 6 6 6 6 5 4 5 5 5 4 4 5 5 5 5 5 5
10 10 10 10 10 10 9 9 8 7 6 6 6 6 6 7 7 7 7 7 7 7 7 7 8 8 7 7 7 6 6 6 6 6 6 6 6 6 6 6 6 6 6
10 11 10 10 11 10 9 8 8 7 7 8 8 7 7 7 7 7 7 8 8 7 8 9 8 8 8 9 9 8 7 7 7 7 8 8 8 8 7 7 7 7 8
10 11 11 11 11 10 9 9 8 8 8 9 8 7 7 7 7 7 8 8 8 7 8 9 9 9 9 9 9 9 8 8 9 8 9 9 9 9 9 9 9 9 9
11 11 11 11 11 10 9 9 9 9 9 9 8 8 8 8 8 8 8 8 8 8 9 9 9 9 9 9 9 10 10 10 10 10 10 10 10 11 11 11 10 11 10
11 11 12 11 11 11 10 10 11 10 10 10 9 9 9 8 8 8 8 8 9 9 9 10 10 10 9 10 10 11 12 12 12 12 12 12 12 12 12 12 12 12 13
11 12 12 12 12 12 11 11 11 11 11 10 10 10 9 9 9 9 9 9 10 10 10 11 11 11 11 10 11 11 12 13 13 13 14 14 14 14 14 14 15 15 15

GEFSSE_500_meanwind_204.txt.gz
Wind_Speed
13 13 12 12 12 12 11 10 10 9 8 8 7 8 8 7 7 8 8 8 8 8 8 8 9 8 9 8 8 8 8 9 9 9 9 9 9 9 8 8 8 7 7
12 12 12 12 11 11 10 10 9 9 8 7 7 7 7 7 7 7 7 7 7 7 7 7 7 8 8 8 9 9 9 9 9 9 9 9 9 9 9 8 8 8 8
12 12 11 11 10 10 10 9 9 9 8 7 6 7 6 6 6 6 6 6 6 6 6 7 7 7 8 8 8 9 9 9 9 9 9 9 9 9 9 8 8 8 8
13 12 11 10 10 9 9 9 8 7 7 6 6 6 6 6 6 6 6 6 6 6 6 7 7 7 8 8 8 8 8 9 10 10 9 9 9 9 9 8 8 8 8
12 11 11 10 9 9 9 8 7 7 6 6 5 5 5 6 5 6 6 5 6 6 6 6 7 8 8 8 8 8 8 9 9 9 9 9 9 9 9 9 8 8 8
11 11 10 10 10 9 8 7 7 6 6 6 6 5 5 5 5 5 6 6 6 5 6 6 7 7 7 7 7 7 8 9 9 9 9 8 8 8 8 8 8 8 8
11 11 10 10 9 9 9 8 7 7 7 6 6 6 5 4 4 4 5 5 5 6 6 6 6 6 6 6 7 7 8 8 8 8 8 8 8 8 8 8 8 8 8
11 11 10 10 10 9 9 8 8 7 7 7 6 6 6 6 5 5 5 5 5 5 6 6 6 5 6 6 6 6 7 8 8 8 8 7 8 7 7 7 7 8 7
12 11 10 10 10 10 9 9 8 7 7 6 5 5 6 5 5 6 6 6 6 6 6 6 6 6 5 5 5 6 6 7 7 7 7 7 7 7 6 7 7 7 7
11 10 11 11 10 10 9 9 8 7 7 6 6 5 6 5 5 6 6 6 6 6 6 6 6 6 5 5 5 6 6 7 7 6 6 6 6 7 6 7 6 6 6
11 11 11 10 11 10 9 9 9 8 7 6 6 6 6 6 6 5 5 5 5 5 6 6 6 6 6 6 5 5 6 6 6 6 6 6 6 6 6 6 6 5 5
12 11 11 10 10 10 10 9 9 8 7 6 6 6 5 5 6 5 5 5 5 6 5 5 5 5 5 5 5 5 5 5 5 5 5 5 5 5 5 5 6 5 5
12 11 11 10 10 10 10 9 9 8 7 7 6 6 6 5 5 4 4 5 5 5 5 5 5 5 5 5 4 4 4 4 4 4 4 4 4 4 4 4 5 4 4
12 11 11 11 11 10 9 9 9 8 7 7 6 5 5 5 5 4 4 4 4 4 4 4 4 4 4 5 4 3 3 3 3 3 3 3 3 3 4 3 3 3 3
12 11 11 10 10 10 9 9 8 7 6 6 6 5 5 5 5 5 4 4 4 3 3 3 3 3 4 4 3 3 2 2 3 3 2 2 2 2 3 2 2 2 2
12 11 10 10 10 9 9 9 7 6 6 6 5 4 4 4 4 4 3 4 3 2 3 2 2 2 2 2 2 2 1 2 2 2 2 2 1 1 1 1 1 1 1
11 11 10 10 10 9 9 8 7 6 5 5 4 4 3 3 3 3 3 3 2 2 1 2 1 1 1 1 1 1 1 1 1 1 1 1 1 1 1 1 1 1 1
11 10 10 9 9 9 8 8 7 6 5 5 4 4 3 3 3 3 3 3 2 2 1 1 1 1 1 2 1 1 1 1 1 2 2 2 2 1 1 2 2 2 3
10 10 10 10 9 9 8 7 6 6 5 5 5 4 4 4 3 3 3 3 2 1 2 1 1 2 2 2 2 2 1 1 2 2 3 3 3 3 3 3 4 3 4
8 9 10 10 10 9 8 8 7 6 5 5 5 4 4 4 3 3 3 3 2 1 2 2 2 2 2 2 2 2 2 2 3 4 4 4 4 4 5 5 5 5 5
8 9 9 9 10 9 9 8 7 6 5 5 4 4 4 4 3 2 3 2 2 2 2 2 2 2 2 2 3 3 4 4 4 5 5 6 6 7 7 7 8 7 7
7 8 9 9 9 9 9 8 7 6 6 5 5 4 4 4 4 4 4 3 2 2 3 3 2 2 3 4 4 4 5 5 5 5 6 7 8 8 8 8 9 9 9
7 7 8 9 9 9 8 8 8 7 6 5 4 4 4 4 5 5 5 4 3 4 4 4 4 4 4 4 5 5 5 6 7 7 8 8 9 9 9 10 10 10 11
6 7 7 8 9 9 9 8 8 7 7 5 5 5 4 5 5 4 4 5 4 4 4 4 5 4 4 5 5 6 7 7 8 8 9 10 10 11 11 11 12 12 12
6 6 7 7 8 9 8 8 9 8 6 6 6 6 5 5 4 4 5 5 5 4 5 5 5 5 5 6 7 7 8 8 9 10 10 11 11 12 12 13 13 14 14
6 6 7 8 8 8 8 8 8 8 7 6 6 6 6 5 5 4 4 5 5 5 5 6 6 7 7 8 8 9 9 10 10 10 11 12 13 13 13 14 14 14 15

GEFSSE_500_meanwind_210.txt.gz
Wind_Speed
13 13 13 13 13 13 13 13 13 13 12 12 11 10 9 9 8 8 9 9 8 8 8 8 8 9 9 9 9 9 9 9 8 8 8 8 8 8 8 8 7 7 7
12 12 12 12 12 12 13 13 13 12 12 11 11 10 9 9 9 9 9 8 8 8 8 7 8 9 9 9 9 9 8 8 8 8 8 8 8 8 8 8 7 7 8
11 11 11 12 12 12 12 12 12 11 11 11 10 9 9 8 8 8 8 7 7 8 8 8 8 8 9 9 8 8 8 7 7 7 8 8 8 8 8 8 8 8 7
11 11 11 11 11 12 12 11 11 11 10 10 9 9 8 8 8 8 7 7 7 8 7 7 8 8 9 9 8 8 7 7 7 8 8 8 8 8 8 8 8 8 8
11 11 11 11 11 11 11 10 10 10 9 9 9 8 8 8 8 7 7 7 7 7 7 7 7 8 8 8 8 8 8 7 7 8 8 8 8 8 8 7 8 8 8
11 11 12 12 11 10 10 10 10 9 8 9 9 8 8 7 7 7 7 7 8 7 6 6 6 7 7 7 8 8 8 8 8 8 8 8 8 7 7 7 7 7 7
12 13 12 12 12 11 10 10 10 9 8 8 8 7 7 7 8 8 7 7 6 6 6 6 6 6 6 7 7 8 8 8 8 7 7 7 7 7 7 7 7 7 7
12 13 13 12 12 11 11 10 10 9 9 8 8 7 7 7 6 6 6 6 5 6 6 6 6 6 7 7 7 7 8 8 7 7 7 6 6 6 7 7 7 7 6
13 13 13 13 12 12 11 11 10 9 9 8 8 7 7 6 6 6 7 6 6 6 6 6 6 7 6 7 6 7 7 7 7 6 6 6 6 6 6 6 7 7 7
13 13 13 12 12 11 11 11 10 10 9 8 8 7 8 8 7 7 7 7 7 7 6 7 7 7 7 6 6 6 7 6 6 6 6 6 6 6 6 6 6 6 6
13 12 12 12 12 11 11 11 11 10 10 9 8 8 8 9 8 8 7 7 7 7 7 7 7 7 6 6 6 6 6 5 5 6 6 6 6 5 5 5 5 5 5
13 12 12 12 12 11 11 11 10 10 10 9 8 8 8 8 8 8 7 7 7 7 7 7 7 7 6 6 6 5 5 5 5 5 5 5 5 5 5 5 4 4 4
12 12 11 11 11 10 10 10 10 10 10 9 9 8 7 7 7 7 7 6 6 6 6 6 5 5 5 5 5 5 5 4 4 4 4 4 4 4 4 4 4 3 3
12 11 11 10 10 10 9 9 9 9 8 8 8 7 7 6 6 6 5 5 5 5 5 5 4 4 4 4 4 4 4 4 4 3 3 3 3 2 2 3 3 3 3
12 11 10 10 9 9 9 9 9 8 8 8 7 6 5 5 4 4 4 4 4 4 4 4 3 3 3 3 3 3 3 3 2 2 2 2 2 1 1 1 1 1 2
11 11 10 9 9 9 9 9 9 8 7 7 7 6 4 4 3 3 2 2 2 3 3 3 2 2 2 3 3 2 2 2 2 2 2 1 1 1 1 1 1 1 2
10 10 9 9 8 8 8 8 8 7 7 6 6 5 4 3 3 2 1 1 1 2 2 2 1 1 1 1 1 1 1 1 1 1 1 1 1 2 2 2 3 3 3
9 9 8 8 8 7 7 7 7 6 6 6 5 5 4 3 2 2 1 1 1 1 1 1 1 1 0 1 1 2 2 2 2 3 3 3 3 3 3 4 4 5 5
8 8 8 8 7 7 7 7 6 6 5 5 5 4 3 2 2 2 1 1 0 1 1 1 1 1 1 2 2 2 2 2 3 4 4 5 5 5 5 5 5 5 6
7 6 7 7 7 6 6 6 6 6 6 5 4 4 3 3 2 2 1 1 1 2 3 3 3 2 2 3 3 3 3 3 4 5 5 5 6 6 7 7 7 7 7
6 6 6 7 6 6 6 6 6 6 6 5 4 3 3 3 3 2 1 1 2 3 3 4 4 4 4 4 4 4 4 5 5 5 5 5 6 7 8 8 8 8 9
7 5 6 6 6 6 6 6 7 6 6 5 4 4 4 4 4 4 3 3 3 3 4 4 5 5 5 5 5 5 5 6 6 6 7 7 8 9 9 9 10 10 10
6 6 6 5 5 6 6 6 7 6 6 6 5 4 4 5 5 5 5 4 4 3 4 5 5 6 6 7 6 6 7 7 7 7 8 9 10 10 10 10 11 11 12
6 6 6 5 5 6 6 6 7 7 7 6 5 5 5 6 6 6 6 5 5 5 6 6 6 7 7 7 8 8 9 9 10 10 10 10 11 11 12 12 12 12 13
6 6 6 6 6 6 7 7 7 8 7 7 6 7 7 7 6 6 7 6 6 6 7 7 7 7 8 9 9 10 10 10 11 11 11 12 12 12 12 13 14 14 15
7 7 7 7 7 7 8 8 8 8 8 7 7 7 8 8 8 7 8 8 7 7 8 8 8 8 9 10 10 10 10 11 11 11 12 12 13 13 13 13 14 14 15